Lincoln, NE

2:53 PM CST on November 13, 2019 (GMT -0600)
Lincoln Municipal

Weather History for KLNK - August, 2019

Change the Weather History Date:

Saturday, August 3, 2019

  Actual Average Record
Temperature  
Mean Temperature 75 °F 77 °F  
Max Temperature 82 °F 88 °F 108 °F (1930)
Min Temperature 68 °F 66 °F 51 °F (1978)
Degree Days  
Heating Degree Days 0 0  
Month to date heating degree days 0 0  
Since 1 June heating degree days 6 17  
Since 1 July heating degree days 0 1  
Cooling Degree Days 10 12  
Month to date cooling degree days 31 36  
Year to date cooling degree days 777 747  
Since 1 June cooling degree days 705 668  
Growing Degree Days 26 (Base 50)    
Moisture  
Dew Point 67 °F    
Average Humidity 75    
Maximum Humidity 87    
Minimum Humidity 62    
Precipitation  
Precipitation 0.02 in 0.11 in 2.05 in (1945)
Month to date precipitation 0.02 0.32  
Year to date precipitation 21.89 18.41  
Snow  
Snow 0.00 in 0.00 in 0.00 in (2006)
Month to date snowfall 0.0 0.0  
Since 1 June snowfall 0.0 0.0  
Since 1 July snowfall 0.0 0.0  
Snow Depth 0.00 in    
Sea Level Pressure  
Sea Level Pressure 30.05 in    
Wind  
Wind Speed 4 mph (SE)    
Max Wind Speed 13 mph    
Max Gust Speed 17 mph    
Visibility 10 miles    
Events Rain    
T = Trace of Precipitation, MM = Missing Value Source: NWS Daily Summary

Daily Weather History Graph

Daily Weather History Graph

Search for Another Location

Airport or City:

Astronomy

Aug. 03, 2019 Rise Set
Actual Time 6:25 AM CDT 8:40 PM CDT
Civil Twilight 5:54 AM CDT 9:11 PM CDT
Nautical Twilight 5:16 AM CDT 9:48 PM CDT
Astronomical Twilight 4:35 AM CDT 10:30 PM CDT
Moon 9:20 AM CDT (8/3) 10:45 PM CDT (8/3)
Length of Visible Light 15h 16m
Length of Day
14h 15m
Waxing Crescent, 10% of the Moon is Illuminated
Aug 3
Waxing Crescent
Aug 7
First Quarter
Aug 15
Full
Aug 23
Last Quarter
Aug 30
New

Hourly Weather History & Observations

Time (CDT) Temp. Heat Index Dew Point Humidity Pressure Visibility Wind Dir Wind Speed Gust Speed Precip Events Conditions
12:54 AM 72.0 °F - 66.9 °F 84% 30.06 in 10.0 mi East 4.6 mph - N/A   Partly Cloudy
1:54 AM 72.0 °F - 66.9 °F 84% 30.06 in 10.0 mi North - - N/A   Mostly Cloudy
2:10 AM 72.0 °F - 66.9 °F 84% 30.08 in 10.0 mi Calm Calm - N/A   Overcast
2:22 AM 72.0 °F - 66.9 °F 84% 30.08 in 10.0 mi East 3.5 mph - N/A   Mostly Cloudy
2:54 AM 71.1 °F - 66.9 °F 87% 30.06 in 10.0 mi ENE 3.5 mph - N/A   Overcast
3:54 AM 71.1 °F - 66.9 °F 87% 30.05 in 10.0 mi NE 4.6 mph - N/A   Overcast
4:04 AM 71.1 °F - 66.9 °F 87% 30.08 in 10.0 mi East 4.6 mph - N/A   Overcast
4:39 AM 72.0 °F - 66.0 °F 81% 30.07 in 10.0 mi East 3.5 mph - N/A   Overcast
4:54 AM 71.1 °F - 66.9 °F 87% 30.05 in 10.0 mi Calm Calm - N/A   Overcast
5:46 AM 71.1 °F - 66.9 °F 87% 30.07 in 10.0 mi South 8.1 mph - 0.00 in   Overcast
5:54 AM 70.0 °F - 64.9 °F 84% 30.05 in 10.0 mi South 6.9 mph - 0.00 in   Overcast
6:16 AM 70.0 °F - 66.0 °F 87% 30.08 in 10.0 mi South 5.8 mph - N/A   Overcast
6:54 AM 70.0 °F - 66.9 °F 90% 30.06 in 5.0 mi South 5.8 mph - 0.01 in Rain Light Rain
7:06 AM 69.1 °F - 66.9 °F 93% 30.08 in 7.0 mi South 6.9 mph - 0.00 in Rain Light Rain
7:14 AM 70.0 °F - 66.9 °F 90% 30.08 in 6.0 mi South 6.9 mph - 0.00 in Rain Light Rain
7:54 AM 69.1 °F - 66.0 °F 90% 30.06 in 8.0 mi SSE 6.9 mph - 0.01 in   Overcast
8:16 AM 70.0 °F - 66.9 °F 90% 30.09 in 9.0 mi SE 4.6 mph - N/A   Overcast
8:25 AM 70.0 °F - 66.9 °F 90% 30.09 in 10.0 mi ESE 3.5 mph - N/A   Overcast
8:54 AM 71.1 °F - 66.9 °F 87% 30.06 in 10.0 mi Calm Calm - N/A   Overcast
9:54 AM 73.0 °F - 68.0 °F 84% 30.06 in 10.0 mi SE 3.5 mph - N/A   Overcast
10:54 AM 73.9 °F - 68.0 °F 82% 30.06 in 10.0 mi Calm Calm - N/A   Overcast
11:44 AM 75.0 °F - 68.0 °F 79% 30.09 in 10.0 mi Calm Calm - N/A   Overcast
11:54 AM 75.0 °F - 68.0 °F 79% 30.06 in 10.0 mi Calm Calm - N/A   Overcast
12:39 PM 75.9 °F - 68.0 °F 76% 30.08 in 10.0 mi Calm Calm - 0.00 in   Overcast
12:54 PM 77.0 °F - 69.1 °F 76% 30.05 in 10.0 mi Calm Calm - 0.00 in   Overcast
1:19 PM 78.1 °F - 69.1 °F 74% 30.08 in 10.0 mi ESE 6.9 mph - N/A   Overcast
1:42 PM 79.0 °F - 69.1 °F 72% 30.07 in 10.0 mi SE 8.1 mph - N/A   Overcast
1:54 PM 79.0 °F - 69.1 °F 72% 30.04 in 10.0 mi SE 6.9 mph - N/A   Overcast
2:25 PM 79.0 °F - 66.9 °F 66% 30.07 in 10.0 mi ESE 8.1 mph - N/A   Overcast
2:43 PM 80.1 °F 82.3 °F 66.9 °F 64% 30.07 in 10.0 mi SE 6.9 mph - N/A   Overcast
2:54 PM 80.1 °F 82.3 °F 66.9 °F 64% 30.04 in 10.0 mi SSE 8.1 mph - N/A   Overcast
3:54 PM 79.0 °F - 66.9 °F 66% 30.03 in 10.0 mi SSE 5.8 mph - N/A   Overcast
4:54 PM 79.0 °F - 68.0 °F 69% 30.02 in 10.0 mi ESE 8.1 mph - 0.00 in   Overcast
5:54 PM 81.0 °F 83.3 °F 66.9 °F 62% 30.01 in 10.0 mi ESE 6.9 mph - N/A   Mostly Cloudy
6:54 PM 79.0 °F - 66.0 °F 64% 29.99 in 10.0 mi SE 10.4 mph - N/A   Clear
7:54 PM 79.0 °F - 66.0 °F 64% 30.00 in 10.0 mi SE 6.9 mph - N/A   Mostly Cloudy
8:54 PM 75.0 °F - 64.9 °F 71% 30.00 in 10.0 mi SE 4.6 mph - N/A   Clear
9:54 PM 73.0 °F - 64.9 °F 76% 30.02 in 10.0 mi Calm Calm - N/A   Clear
10:54 PM 69.1 °F - 63.0 °F 81% 30.04 in 10.0 mi Calm Calm - N/A   Overcast
11:54 PM 68.0 °F - 64.0 °F 87% 30.04 in 10.0 mi Calm Calm - N/A   Partly Cloudy